Regional Weather Roundup
Issued by NWS

Home | Current Version | Previous Version | Graphics & Text | Print | Product List | Glossary On
Versions: 1 2 3 4 5 6 7 8 9 10 11 12 13 14 15 16 17 18 19 20 21 22 23 24 25 26 27 28 29 30 31 32 33 34 35 36 37 38 39 40 41 42 43 44 45 46 47 48 49 50
000
ASUS43 KOAX 240710
RWRNE

WEATHER ROUNDUP FOR NEBRASKA
NATIONAL WEATHER SERVICE OMAHA NE
200 AM CDT FRI MAR 24 2017

NOTES: SATELLITE DATA IS BEING USED TO AUGMENT CLOUD COVER ABOVE
       12000 FEET.
       "FAIR" INDICATES FEW OR NO CLOUDS BELOW 12,000 FEET WITH NO
       SIGNIFICANT WEATHER AND/OR OBSTRUCTIONS TO VISIBILITY.

  * THESE STATIONS DO NOT REPORT WEATHER SUCH AS RAIN...SNOW OR FOG.

NEZ001>004-019>022-054>056-240800-
NEBRASKA PANHANDLE

CITY           SKY/WX    TMP DP  RH WIND       PRES   REMARKS
SCOTTSBLUFF    CLOUDY    42  37  82 N18G25    29.90R
ALLIANCE       CLOUDY    42  40  92 NE23      29.87R
CHADRON        CLOUDY    43  38  82 N12       29.93R
KIMBALL        RAIN      40  40 100 N30G38    29.84R WCI  29
SIDNEY         CLOUDY    44  41  89 N23G35    29.82R
$$

NEZ057>060-069>072-079>082-240800-
SOUTHWEST NEBRASKA

CITY           SKY/WX    TMP DP  RH WIND       PRES   REMARKS
NORTH PLATTE   RAIN      53  49  86 NE13      29.75R
IMPERIAL       RAIN      48  45  89 NE18G32   29.73R FOG
LEXINGTON      CLOUDY    55  51  88 NE18      29.71F
OGALLALA       CLOUDY    46  44  90 N20G26    29.77S
$$

NEZ005>010-023>029-035>040-094-240800-
NORTH CENTRAL NEBRASKA

CITY           SKY/WX    TMP DP  RH WIND       PRES   REMARKS
VALENTINE      CLOUDY    45  41  86 N14       29.86R
AINSWORTH      LGT RAIN  47  47 100 N16       29.84R
BROKEN BOW     CLOUDY    53  51  93 NE20G30   29.76R
O`NEILL        CLOUDY    49  49 100 N10       29.81R FOG
ORD            LGT RAIN  53  51  93 N9        29.76S FOG
THEDFORD       LGT RAIN  50  49  94 NE12      29.82R
$$

NEZ041-046>049-061>064-073>077-083>087-240800-
SOUTH CENTRAL NEBRASKA

CITY           SKY/WX    TMP DP  RH WIND       PRES   REMARKS
GRAND ISLAND   LGT RAIN  56  54  93 N18G25    29.74R
AURORA         LGT RAIN  58  55  88 NW14      29.72R
HASTINGS       LGT RAIN  62  52  69 SW8       29.73R
HEBRON         CLOUDY    68  48  47 S15G21    29.69R
HOLDREGE       TSTM      55  52  91 N16       29.74R
KEARNEY *      CLOUDY    54  50  87 N21       29.76R
YORK           CLOUDY    59  55  88 NW12      29.72R
$$

NEZ011>018-030>034-042>045-240800-
NORTHEAST NEBRASKA

CITY           SKY/WX    TMP DP  RH WIND       PRES   REMARKS
NORFOLK        RAIN      54  53  97 NE5       29.78R FOG
ALBION         HVY RAIN  56  53  89 NE5       29.77R
BLAIR          CLOUDY    68  51  54 SW7       29.71R
FREMONT        LGT RAIN  59  55  85 N10G17    29.73R
TEKAMAH        LGT RAIN  56  51  84 NW16      29.75R
WAYNE          RAIN      51  51  99 N12       29.77R
$$

NEZ050>053-065>068-078-088>093-240800-
SOUTHEAST NEBRASKA

CITY           SKY/WX    TMP DP  RH WIND       PRES   REMARKS
LINCOLN        CLOUDY    67  50  54 SW7       29.70R
OMAHA EPPLEY   CLOUDY    70  51  51 S14       29.69R
BEATRICE       CLOUDY    69  49  49 S14       29.69F
FALLS CITY     PTCLDY    65  48  54 S13       29.74S
NEBRASKA CITY  MOCLDY    66  43  43 S15       29.71R
PLATTSMOUTH    CLOUDY    67  46  46 S10       29.71R
$$

NEZ044-045-051>053-067-240800-
OMAHA AREA

CITY           SKY/WX    TMP DP  RH WIND       PRES   REMARKS
OMAHA EPPLEY   CLOUDY    70  51  51 S14       29.69R
BLAIR          CLOUDY    68  51  54 SW7       29.71R
FREMONT        LGT RAIN  59  55  85 N10G17    29.73R
MILLARD        CLOUDY    72  53  51 S8        29.69F
OFFUTT AFB     CLOUDY    66  53  62 S9        29.69S
PLATTSMOUTH    CLOUDY    67  46  46 S10       29.71R
WAHOO          CLOUDY    66  49  52 CALM      29.70S
$$




USA.gov is the U.S. government's official web portal to all federal, state and local government web resources and services.